Regional Weather Roundup
Issued by NWS Charleston, WV

Home | Current Version | Previous Version | Text Only | Print | Product List | Glossary Off
Versions: 1 2 3 4 5 6 7 8 9 10 11 12 13 14 15 16 17 18 19 20 21 22 23 24 25 26 27 28 29 30 31 32 33 34 35 36 37 38 39 40 41 42 43 44 45 46 47 48 49 50

000
ASUS41 KRLX 161910
RWRRLX
West Virginia Regional Weather Roundup
National Weather Service Charleston WV
200 PM EST TUE JAN 16 2018

Note: "fair" indicates few or no clouds below 12,000 feet with no
significant weather and/or obstructions to visibility.

WVZ003-162000-
Northern Panhandle of West Virginia

CITY           SKY/WX    TMP DP  RH WIND       PRES   REMARKS
WHEELING       LGT SNOW  17  11  77 SW7       30.34S VSB 1   WCI   8
$$

WVZ009-162000-
Northwest West Virginia

CITY           SKY/WX    TMP DP  RH WIND       PRES   REMARKS
PARKERSBURG    LGT SNOW  17  10  74 W10       30.44R VSB 1   WCI   5
$$

WVZ006-162000-
Western West Virginia

CITY           SKY/WX    TMP DP  RH WIND       PRES   REMARKS
HUNTINGTON     LGT SNOW  18  12  77 NW7       30.44S VSB 3/4 WCI   9
$$

WVZ015-162000-
West Central West Virginia

CITY           SKY/WX    TMP DP  RH WIND       PRES   REMARKS
CHARLESTON     LGT SNOW  23  17  78 VRB3      30.39S
$$

WVZ022-031-162000-
North Central West Virginia

CITY           SKY/WX    TMP DP  RH WIND       PRES   REMARKS
CLARKSBURG     LGT SNOW  30  26  85 NW3       30.30F VSB 1
MORGANTOWN     LGT SNOW  30  25  81 VRB3      30.31S
$$

WVZ025-035-042-045-162000-
Southern West Virginia

CITY           SKY/WX    TMP DP  RH WIND       PRES   REMARKS
BECKLEY        LGT SNOW  31  26  82 NW5       30.24S
LOGAN          LGT SNOW  23  21  93 CALM      30.33S
BLUEFIELD      CLOUDY    37  22  54 SW9G17    30.23F
LEWISBURG      CLOUDY    34  26  72 NE6       30.25F
$$

WVZ047-162000-
Northern Mountains of West Virginia

CITY           SKY/WX    TMP DP  RH WIND       PRES   REMARKS
ELKINS         LGT SNOW  31  29  92 CALM      30.24F VSB 1
$$

WVZ052-162000-
Eastern Panhandle of West Virginia

CITY           SKY/WX    TMP DP  RH WIND       PRES   REMARKS
MARTINSBURG    CLOUDY    32  21  64 CALM      30.35F
PETERSBURG     LGT SNOW  27  21  79 CALM      30.32F
$$



USA.gov is the U.S. government's official web portal to all federal, state and local government web resources and services.